FW4519 Weather Reports


Display with metric or nautical units.
time (UTC)temp
F
wind
direction
speed
MPH
gust
MPH
rain 1hr
in
rain 24hr
in
rain mn
in
humidity
%
barometer
mb
20260504173324 82 124 6.0 11.0 0.00 0.00 0.00 53 1015.3
20260504172817 82 104 4.0 14.0 0.00 0.00 0.00 53 1015.4
20260504172316 81 101 6.0 14.0 0.00 0.00 0.00 53 1015.4
20260504171817 81 75 6.0 14.0 0.00 0.00 0.00 54 1015.6
20260504171313 82 34 4.0 8.0 0.00 0.00 0.00 55 1015.7
20260504170833 82 72 4.0 13.0 0.00 0.00 0.00 53 1015.7
20260504170346 81 73 5.0 13.0 0.00 0.00 0.00 55 1015.5
20260504160338 79 107 7.0 17.0 0.00 0.00 0.00 60 1016.0
20260504150833 77 58 6.0 15.0 0.00 0.00 0.00 64 1016.3
20260504150334 77 65 7.0 15.0 0.00 0.00 0.00 65 1016.3
20260504141331 76 18 4.0 11.0 0.00 0.00 0.00 69 1016.0
20260504140830 76 118 3.0 11.0 0.00 0.00 0.00 70 1016.1
20260504140349 75 64 4.0 13.0 0.00 0.00 0.00 70 1016.0
20260504130814 73 53 3.0 13.0 0.00 0.00 0.00 73 1015.8
20260504130335 73 56 4.0 9.0 0.00 0.00 0.00 73 1015.7
20260504120314 70 44 3.0 9.0 0.00 0.00 0.00 80 1015.3
20260504110322 67 73 2.0 7.0 0.00 0.00 0.00 86 1015.2
20260504100322 68 13 1.0 5.0 0.00 0.00 0.00 85 1014.9
20260504081826 69 63 1.0 5.0 0.00 0.00 0.00 81 1014.6
20260504081326 70 53 1.0 6.0 0.00 0.00 0.00 81 1014.7
20260504080826 70 37 2.0 6.0 0.00 0.00 0.00 81 1014.7
20260504080326 70 68 2.0 5.0 0.00 0.00 0.00 81 1014.7
20260504070324 71 60 1.0 6.0 0.00 0.00 0.00 79 1015.3
20260504050326 71 65 0.0 7.0 0.00 0.01 0.00 80 1016.1
20260504045826 71 71 2.0 7.0 0.00 0.01 0.00 80 1015.9
20260504045325 71 24 1.0 4.0 0.00 0.01 0.00 80 1016.0
20260504044826 71 51 1.0 4.0 0.00 0.01 0.00 80 1016.1
20260504044322 72 105 1.0 5.0 0.00 0.01 0.00 80 1016.2
20260504043822 72 121 3.0 5.0 0.00 0.01 0.00 79 1016.0
20260504043343 72 78 1.0 7.0 0.00 0.01 0.00 79 1016.0
20260504042819 72 89 3.0 8.0 0.00 0.01 0.00 79 1016.0
20260504042318 72 90 4.0 12.0 0.00 0.01 0.00 79 1016.1
20260504041818 72 70 6.0 12.0 0.00 0.01 0.00 78 1016.2
20260504041314 72 62 4.0 8.0 0.00 0.01 0.00 78 1016.4
20260504040814 72 123 3.0 9.0 0.00 0.01 0.00 78 1016.3
20260504040315 72 49 4.0 8.0 0.00 0.01 0.00 78 1016.4
20260504035847 73 116 3.0 10.0 0.00 0.02 0.01 78 1016.5
20260504035326 73 92 3.0 10.0 0.00 0.02 0.01 78 1016.6
20260504034826 73 39 3.0 8.0 0.00 0.02 0.01 77 1016.6
20260504034345 73 113 4.0 9.0 0.00 0.02 0.01 77 1016.4
20260504033823 73 56 3.0 8.0 0.00 0.02 0.01 77 1016.5
20260504033324 73 105 3.0 8.0 0.00 0.02 0.01 77 1016.4
20260504032823 74 75 2.0 10.0 0.00 0.02 0.01 77 1016.5
20260504032323 74 117 3.0 10.0 0.00 0.02 0.01 76 1016.5
20260504031825 74 72 3.0 10.0 0.00 0.02 0.01 76 1016.5
20260504031324 74 107 5.0 9.0 0.00 0.02 0.01 76 1016.4
20260504030845 74 86 4.0 9.0 0.00 0.02 0.01 76 1016.4
20260504030325 74 118 4.0 8.0 0.00 0.02 0.01 76 1016.4
20260504025823 74 113 3.0 10.0 0.00 0.02 0.01 77 1016.3
20260504025321 74 86 4.0 10.0 0.00 0.02 0.01 76 1016.2
20260504024823 74 105 3.0 7.0 0.00 0.02 0.01 76 1016.3
20260504024322 74 91 3.0 7.0 0.00 0.02 0.01 75 1016.3
20260504023842 74 41 1.0 4.0 0.00 0.02 0.01 73 1016.2
20260504023321 74 113 0.0 5.0 0.00 0.02 0.01 74 1016.2
20260504022839 74 11 2.0 6.0 0.00 0.02 0.01 74 1016.1
20260504022317 73 25 2.0 6.0 0.00 0.02 0.01 73 1016.0
20260504021819 73 353 1.0 5.0 0.00 0.02 0.01 72 1015.9
20260504021317 73 13 2.0 5.0 0.00 0.02 0.01 72 1015.9
20260504020817 73 10 0.0 4.0 0.00 0.02 0.01 72 1015.9
20260504020319 73 11 1.0 5.0 0.00 0.02 0.01 72 1015.9
20260504015819 73 23 1.0 5.0 0.00 0.02 0.01 72 1015.6
20260504015332 73 82 1.0 3.0 0.00 0.02 0.01 73 1015.4
20260504014853 73 335 0.0 4.0 0.00 0.02 0.01 73 1015.5
20260504014330 73 14 1.0 4.0 0.00 0.02 0.01 72 1015.4
20260504013828 73 16 0.0 4.0 0.00 0.02 0.01 72 1015.4
20260504013349 73 5 1.0 5.0 0.00 0.02 0.01 72 1015.2
20260504012826 73 23 3.0 7.0 0.00 0.02 0.01 72 1015.2
20260504011826 73 20 1.0 4.0 0.00 0.02 0.01 73 1015.1
20260504011325 73 359 1.0 3.0 0.00 0.02 0.01 73 1015.1
20260504010825 73 359 0.0 3.0 0.00 0.02 0.01 73 1015.0
20260504010327 73 359 1.0 3.0 0.00 0.02 0.01 73 1015.0
20260504005827 73 11 2.0 4.0 0.00 0.02 0.01 73 1014.9
20260504005325 74 345 1.0 5.0 0.00 0.02 0.01 73 1014.9
20260504004823 74 22 3.0 5.0 0.00 0.02 0.01 73 1014.8
20260504004323 74 306 2.0 5.0 0.00 0.02 0.01 73 1014.8
20260504003844 74 13 2.0 7.0 0.00 0.02 0.01 73 1014.7
20260504003323 74 342 2.0 7.0 0.00 0.02 0.01 74 1014.7
20260504002821 74 352 1.0 7.0 0.00 0.02 0.01 74 1014.7
20260504002319 74 13 2.0 7.0 0.00 0.02 0.01 73 1014.6
20260504001822 74 322 4.0 7.0 0.00 0.02 0.01 73 1014.5
20260504001321 74 337 4.0 7.0 0.00 0.02 0.01 73 1014.4
20260504000820 74 356 2.0 8.0 0.00 0.02 0.01 73 1014.3
20260504000343 74 11 4.0 8.0 0.00 0.02 0.01 73 1014.3
20260503235838 74 345 4.0 8.0 0.00 0.02 0.01 73 1014.4
20260503235318 75 316 3.0 11.0 0.00 0.02 0.01 72 1014.3
20260503234818 75 350 5.0 11.0 0.00 0.02 0.01 72 1014.1
20260503234316 75 298 4.0 10.0 0.00 0.02 0.01 72 1014.1
20260503233815 75 296 3.0 11.0 0.00 0.02 0.01 72 1014.3
20260503233316 75 325 5.0 11.0 0.00 0.02 0.01 71 1014.2
20260503232814 76 23 2.0 7.0 0.00 0.02 0.01 71 1014.4
20260503231815 76 314 3.0 10.0 0.00 0.02 0.01 70 1014.3
20260503231314 76 309 4.0 9.0 0.00 0.02 0.01 70 1014.2
20260503230814 77 335 3.0 12.0 0.00 0.02 0.01 69 1014.1
20260503230336 77 354 7.0 12.0 0.00 0.02 0.01 68 1014.2
20260503225855 77 13 4.0 12.0 0.00 0.03 0.01 68 1014.2
20260503225331 77 349 4.0 12.0 0.00 0.03 0.01 68 1014.3
20260503224853 78 304 4.0 10.0 0.00 0.03 0.01 67 1014.2
20260503224332 78 20 4.0 8.0 0.00 0.03 0.01 67 1014.2
20260503223830 78 314 1.0 10.0 0.00 0.03 0.01 67 1014.2
20260503223329 79 299 5.0 11.0 0.00 0.03 0.01 65 1014.2
20260503222829 79 9 5.0 11.0 0.00 0.03 0.01 64 1014.2
20260503222329 80 354 1.0 12.0 0.00 0.03 0.01 64 1014.1
20260503221831 81 27 3.0 6.0 0.00 0.03 0.01 58 1014.1
20260503221329 81 123 1.0 5.0 0.00 0.03 0.01 59 1014.1
20260503220827 80 53 3.0 9.0 0.00 0.03 0.01 59 1014.1
20260503220328 81 10 4.0 9.0 0.00 0.03 0.01 59 1014.2
20260503215826 81 314 3.0 5.0 0.00 0.11 0.01 59 1014.2
20260503215327 81 325 3.0 6.0 0.00 0.11 0.01 59 1014.2
20260503214828 81 13 1.0 10.0 0.00 0.11 0.01 60 1014.2
20260503214326 80 3 3.0 10.0 0.00 0.11 0.01 60 1014.2
20260503213846 80 47 4.0 8.0 0.00 0.11 0.01 60 1014.2
20260503213325 80 300 3.0 9.0 0.00 0.11 0.01 60 1014.1
20260503212844 80 93 4.0 9.0 0.00 0.11 0.01 60 1014.2
20260503212322 81 10 3.0 7.0 0.00 0.11 0.01 59 1014.3
20260503211824 80 8 3.0 7.0 0.00 0.11 0.01 60 1014.2
20260503211322 80 288 2.0 8.0 0.00 0.11 0.01 59 1014.3
20260503210819 80 11 3.0 10.0 0.00 0.11 0.01 59 1014.3
20260503210318 80 74 3.0 7.0 0.00 0.11 0.01 60 1014.3
20260503205818 80 32 3.0 9.0 0.00 0.14 0.01 61 1014.3
20260503205335 81 319 4.0 9.0 0.00 0.14 0.01 60 1014.3
20260503204815 80 359 2.0 6.0 0.00 0.14 0.01 61 1014.4
20260503204333 79 28 3.0 6.0 0.00 0.14 0.01 62 1014.5
20260503203832 79 21 3.0 6.0 0.00 0.14 0.01 62 1014.6
20260503203334 79 97 4.0 7.0 0.00 0.14 0.01 62 1014.6
20260503202833 80 119 4.0 11.0 0.00 0.14 0.01 62 1014.7
20260503202314 79 8 4.0 11.0 0.00 0.14 0.01 63 1014.7
20260503201833 79 32 3.0 9.0 0.00 0.14 0.01 63 1014.7
20260503201353 79 108 4.0 10.0 0.00 0.14 0.01 63 1014.8
20260503200829 81 101 3.0 10.0 0.00 0.14 0.01 62 1014.8
20260503200329 80 347 5.0 10.0 0.00 0.14 0.01 61 1014.9
20260503195824 81 3 2.0 10.0 0.00 0.62 0.01 61 1015.0
20260503195344 80 15 5.0 10.0 0.00 0.62 0.01 61 1015.1
20260503194823 80 65 4.0 10.0 0.00 0.62 0.01 63 1015.0
20260503194320 80 34 4.0 10.0 0.00 0.62 0.01 61 1015.1
20260503193839 80 20 3.0 8.0 0.00 0.62 0.01 63 1015.2
20260503193319 79 70 3.0 10.0 0.00 0.62 0.01 64 1015.3
20260503192817 79 49 4.0 12.0 0.00 0.62 0.01 61 1015.3
20260503192316 79 130 6.0 12.0 0.00 0.62 0.01 62 1015.4
20260503191817 79 32 3.0 11.0 0.00 0.62 0.01 64 1015.4
20260503191316 78 50 4.0 12.0 0.00 0.62 0.01 63 1015.5
20260503190835 78 28 4.0 12.0 0.00 0.62 0.01 64 1015.7
20260503190314 78 58 5.0 12.0 0.00 0.62 0.01 65 1015.9
20260503185832 79 59 2.0 9.0 0.00 0.62 0.01 64 1016.0
20260503185333 79 23 4.0 11.0 0.00 0.62 0.01 64 1016.1
20260503184834 78 20 5.0 11.0 0.00 0.62 0.01 67 1016.1
20260503184332 78 24 4.0 10.0 0.00 0.62 0.01 65 1016.2
20260503183831 77 70 4.0 14.0 0.00 0.62 0.01 65 1016.3
20260503183332 77 58 3.0 14.0 0.00 0.62 0.01 68 1016.4
20260503182832 77 122 5.0 9.0 0.00 0.62 0.01 68 1016.3
20260503182332 77 322 4.0 11.0 0.00 0.62 0.01 66 1016.5
20260503181834 78 64 4.0 17.0 0.00 0.62 0.01 68 1016.4
20260503181324 77 46 5.0 17.0 0.00 0.62 0.01 68 1016.5
20260503180823 77 329 6.0 12.0 0.00 0.62 0.01 67 1016.5
20260503180324 77 47 4.0 13.0 0.00 0.62 0.01 69 1016.7
20260503175823 77 48 3.0 13.0 0.00 0.62 0.01 68 1016.8
20260503175321 77 106 3.0 13.0 0.00 0.62 0.01 68 1016.7
20260503174823 76 52 5.0 12.0 0.00 0.62 0.01 69 1016.7
20260503174320 76 119 5.0 10.0 0.00 0.62 0.01 71 1016.9
20260503173841 76 34 4.0 12.0 0.00 0.62 0.01 70 1016.9